Total_Precipitation_Accumulation
0.45 0.45 0.44 0.42 0.37 0.48 0.69 0.87 0.85 0.94 1.06 1.03 0.92 0.86 0.84 0.81 0.77 0.87 0.73 0.74 0.71 0.70 0.93 1.02 0.89 0.81 0.75 0.67 0.60 0.55 0.54 0.55 0.51 0.39 0.34 0.38 0.46 0.52 0.48 0.42 0.38 0.37 0.31
0.68 0.68 0.60 0.61 0.52 0.57 0.69 0.87 0.94 1.18 1.15 1.15 0.90 0.86 0.87 0.91 0.87 0.93 0.89 0.97 0.84 0.72 0.79 0.87 0.90 0.87 0.80 0.75 0.63 0.56 0.51 0.51 0.48 0.36 0.31 0.31 0.38 0.48 0.48 0.49 0.45 0.42 0.36
0.94 0.93 0.81 0.75 0.83 0.92 0.96 1.01 1.08 1.23 1.17 1.08 0.88 0.90 0.89 0.81 0.75 0.76 0.77 0.89 0.90 0.76 0.71 0.72 0.78 0.78 0.79 0.83 0.77 0.70 0.56 0.48 0.42 0.35 0.30 0.25 0.25 0.31 0.33 0.38 0.42 0.43 0.38
1.17 1.12 0.91 0.86 1.15 1.20 1.19 1.25 1.26 1.30 1.38 1.36 1.12 0.97 0.93 0.84 0.67 0.65 0.60 0.65 0.73 0.61 0.64 0.69 0.73 0.71 0.80 0.90 0.96 1.00 0.80 0.59 0.45 0.36 0.29 0.24 0.22 0.23 0.20 0.22 0.29 0.30 0.27
1.33 1.32 1.06 1.02 1.32 1.43 1.38 1.30 1.46 1.64 1.59 1.59 1.33 1.08 0.90 0.76 0.60 0.55 0.52 0.47 0.50 0.51 0.53 0.54 0.51 0.58 0.82 1.02 1.07 1.11 1.06 0.83 0.58 0.46 0.42 0.37 0.31 0.28 0.21 0.17 0.19 0.18 0.17
1.35 1.52 1.23 1.22 1.46 1.46 1.39 1.49 1.63 1.76 1.61 1.63 1.44 1.00 0.78 0.57 0.52 0.42 0.37 0.33 0.29 0.29 0.33 0.44 0.56 0.54 0.72 0.86 0.91 0.98 1.07 1.00 0.78 0.58 0.56 0.53 0.47 0.39 0.29 0.22 0.17 0.17 0.14
1.46 1.72 1.48 1.46 1.51 1.37 1.31 1.51 1.62 1.53 1.38 1.73 1.62 0.98 0.57 0.42 0.32 0.21 0.22 0.20 0.16 0.17 0.26 0.41 0.54 0.59 0.60 0.60 0.68 0.73 0.90 1.02 0.94 0.77 0.69 0.65 0.61 0.48 0.38 0.32 0.23 0.20 0.16
1.47 1.57 1.56 1.47 1.45 1.39 1.23 1.25 1.44 1.31 1.03 1.41 1.51 1.31 0.78 0.42 0.28 0.17 0.16 0.16 0.18 0.24 0.30 0.34 0.42 0.55 0.59 0.64 0.72 0.56 0.65 0.90 1.04 1.01 0.88 0.73 0.61 0.48 0.42 0.38 0.31 0.25 0.20
1.53 1.60 1.49 1.35 1.30 1.29 1.13 1.06 1.19 1.22 1.01 1.08 1.37 1.57 1.12 0.59 0.41 0.22 0.23 0.27 0.34 0.42 0.44 0.47 0.51 0.54 0.60 0.71 0.84 0.89 0.59 0.66 0.92 1.22 1.16 0.89 0.62 0.46 0.41 0.42 0.43 0.35 0.30
1.68 1.60 1.42 1.25 1.09 1.07 1.01 0.95 1.06 1.12 1.11 0.90 1.00 1.10 1.06 0.97 0.81 0.45 0.28 0.33 0.48 0.54 0.55 0.60 0.57 0.56 0.62 0.76 0.91 1.03 0.75 0.60 0.67 1.04 1.23 1.13 0.86 0.61 0.49 0.53 0.71 0.67 0.48
1.65 1.49 1.35 1.22 1.11 1.02 0.94 0.91 0.92 0.93 0.94 0.84 0.85 0.86 0.92 0.93 0.86 0.73 0.50 0.48 0.49 0.40 0.40 0.45 0.56 0.71 0.71 0.80 1.00 1.07 1.00 0.93 0.86 0.83 0.86 0.91 0.90 0.77 0.67 0.72 1.01 1.21 1.04
1.23 1.17 1.09 0.98 0.93 0.92 0.90 0.86 0.83 0.82 0.83 0.83 0.82 0.83 0.89 0.93 0.97 0.98 0.81 0.69 0.60 0.50 0.48 0.46 0.52 0.67 0.72 0.75 0.84 0.96 0.92 0.91 0.85 0.79 0.72 0.68 0.67 0.74 0.84 1.03 1.32 1.59 1.72
0.69 0.67 0.68 0.69 0.70 0.71 0.71 0.73 0.71 0.70 0.75 0.78 0.78 0.84 0.94 1.01 1.06 1.06 0.97 0.77 0.67 0.62 0.67 0.62 0.54 0.61 0.62 0.72 0.76 0.66 0.53 0.54 0.52 0.51 0.51 0.53 0.62 0.71 0.76 0.85 1.09 1.40 1.66
0.50 0.48 0.50 0.53 0.55 0.59 0.60 0.63 0.63 0.62 0.63 0.65 0.66 0.79 0.89 0.89 0.95 1.00 1.00 0.94 0.85 0.80 0.86 0.80 0.62 0.57 0.60 0.64 0.60 0.47 0.42 0.35 0.28 0.24 0.23 0.24 0.30 0.44 0.60 0.75 0.89 1.01 1.16
0.44 0.44 0.48 0.53 0.56 0.59 0.60 0.59 0.59 0.60 0.68 0.72 0.74 0.81 0.87 0.88 0.90 0.93 0.98 1.01 1.02 0.97 0.97 0.91 0.65 0.52 0.50 0.50 0.51 0.44 0.48 0.34 0.18 0.13 0.13 0.13 0.14 0.18 0.28 0.46 0.65 0.79 1.01
0.43 0.46 0.48 0.54 0.57 0.56 0.54 0.53 0.54 0.57 0.66 0.75 0.84 0.94 0.95 0.94 0.91 0.95 1.01 1.11 1.18 1.12 0.99 0.81 0.66 0.58 0.53 0.46 0.42 0.34 0.31 0.26 0.16 0.12 0.11 0.12 0.13 0.15 0.20 0.34 0.49 0.63 0.80
0.41 0.44 0.48 0.50 0.51 0.52 0.51 0.53 0.54 0.60 0.67 0.72 0.76 0.87 0.94 0.95 0.95 0.95 1.00 1.03 1.09 1.16 1.02 0.82 0.75 0.74 0.70 0.61 0.49 0.37 0.27 0.23 0.18 0.14 0.10 0.09 0.11 0.17 0.25 0.32 0.42 0.52 0.59
0.48 0.48 0.51 0.52 0.51 0.53 0.60 0.66 0.65 0.70 0.74 0.76 0.78 0.80 0.79 0.84 0.92 0.91 0.92 0.92 0.96 1.07 0.97 0.84 0.84 0.82 0.79 0.72 0.62 0.49 0.36 0.28 0.25 0.17 0.12 0.10 0.10 0.13 0.17 0.21 0.30 0.44 0.54
0.53 0.54 0.59 0.66 0.68 0.68 0.68 0.73 0.78 0.78 0.72 0.68 0.68 0.68 0.66 0.67 0.72 0.79 0.85 0.81 0.78 0.85 0.90 0.90 0.91 0.92 0.86 0.72 0.63 0.56 0.47 0.43 0.32 0.24 0.16 0.13 0.12 0.13 0.13 0.14 0.20 0.29 0.43
0.43 0.49 0.57 0.67 0.76 0.81 0.83 0.79 0.73 0.70 0.65 0.60 0.56 0.53 0.55 0.58 0.59 0.62 0.70 0.72 0.72 0.76 0.82 0.84 0.89 0.94 0.86 0.75 0.67 0.61 0.57 0.58 0.46 0.34 0.28 0.23 0.19 0.16 0.15 0.13 0.13 0.20 0.31
0.40 0.51 0.62 0.70 0.81 0.88 0.83 0.79 0.70 0.65 0.63 0.56 0.50 0.45 0.44 0.44 0.46 0.51 0.55 0.57 0.60 0.65 0.68 0.71 0.75 0.80 0.76 0.70 0.62 0.55 0.56 0.65 0.61 0.45 0.40 0.39 0.36 0.31 0.28 0.22 0.15 0.14 0.21
0.35 0.43 0.50 0.56 0.59 0.56 0.57 0.54 0.49 0.47 0.48 0.45 0.42 0.41 0.37 0.33 0.36 0.38 0.37 0.42 0.47 0.47 0.53 0.64 0.66 0.70 0.68 0.60 0.55 0.56 0.58 0.59 0.67 0.67 0.60 0.59 0.54 0.50 0.41 0.31 0.23 0.15 0.15
0.31 0.35 0.38 0.41 0.42 0.42 0.35 0.30 0.28 0.28 0.32 0.34 0.35 0.36 0.28 0.25 0.30 0.31 0.28 0.26 0.29 0.32 0.36 0.49 0.59 0.60 0.61 0.58 0.54 0.56 0.62 0.74 0.82 0.84 0.79 0.77 0.64 0.56 0.51 0.43 0.33 0.21 0.16
0.35 0.36 0.35 0.36 0.40 0.38 0.29 0.22 0.19 0.18 0.22 0.25 0.28 0.32 0.30 0.27 0.27 0.27 0.25 0.20 0.18 0.21 0.24 0.29 0.37 0.48 0.61 0.67 0.60 0.53 0.53 0.59 0.74 0.81 0.82 0.91 0.88 0.78 0.72 0.64 0.53 0.35 0.25
0.42 0.41 0.38 0.37 0.39 0.40 0.30 0.20 0.17 0.19 0.25 0.24 0.25 0.27 0.28 0.27 0.28 0.22 0.21 0.22 0.21 0.20 0.20 0.24 0.28 0.37 0.48 0.59 0.66 0.50 0.36 0.30 0.33 0.36 0.37 0.54 0.73 0.81 0.87 0.86 0.74 0.59 0.44
0.51 0.47 0.43 0.44 0.47 0.51 0.43 0.25 0.20 0.23 0.29 0.32 0.35 0.32 0.29 0.28 0.26 0.20 0.20 0.23 0.22 0.20 0.19 0.20 0.21 0.26 0.30 0.37 0.46 0.44 0.32 0.23 0.18 0.18 0.14 0.19 0.31 0.42 0.59 0.68 0.68 0.65 0.59